This is the latest recevied weather packets stored in our database for station/object E22ZMG-2. If no packets are shown the sender has not sent any weather packets the latest 10 day(s).
| Time | Temp. | Humidity | Pressure | Rain* | Wind** | Luminosity | Snow |
|---|---|---|---|---|---|---|---|
| 1777790103 | 33.33° C | 41% | 925 hPa | - | - | 0 W/m² | - |
| 1777789479 | 32.78° C | 42% | 925 hPa | - | - | 0 W/m² | - |
| 1777788855 | 33.33° C | 42% | 925 hPa | - | - | 0 W/m² | - |
| 1777788231 | 33.33° C | 41% | 925 hPa | - | - | 0 W/m² | - |
| 1777787607 | 32.78° C | 37% | 926 hPa | - | - | 0 W/m² | - |
| 1777786983 | 33.33° C | 37% | 926 hPa | - | - | 0 W/m² | - |
| 1777786359 | 33.33° C | 37% | 926 hPa | - | - | 0 W/m² | - |
| 1777785734 | 32.78° C | 38% | 926 hPa | - | - | 0 W/m² | - |
| 1777785109 | 33.33° C | 37% | 926 hPa | - | - | 0 W/m² | - |
| 1777784485 | 33.33° C | 36% | 927 hPa | - | - | 0 W/m² | - |
| 1777783861 | 32.78° C | 39% | 927 hPa | - | - | 0 W/m² | - |
| 1777783237 | 32.78° C | 40% | 927 hPa | - | - | 0 W/m² | - |
| 1777782613 | 32.78° C | 40% | 927 hPa | - | - | 0 W/m² | - |
| 1777781989 | 32.22° C | 40% | 927 hPa | - | - | 0 W/m² | - |
| 1777781365 | 31.67° C | 42% | 927 hPa | - | - | 0 W/m² | - |
| 1777780741 | 31.67° C | 42% | 927 hPa | - | - | 0 W/m² | - |
| 1777780116 | 31.11° C | 43% | 927 hPa | - | - | 0 W/m² | - |
| 1777779492 | 31.11° C | 44% | 928 hPa | - | - | 0 W/m² | - |
| 1777778868 | 31.11° C | 45% | 928 hPa | - | - | 0 W/m² | - |
| 1777778244 | 31.11° C | 45% | 928 hPa | - | - | 0 W/m² | - |
| 1777777620 | 30.56° C | 45% | 928 hPa | - | - | 0 W/m² | - |
| 1777776996 | 30.56° C | 47% | 928 hPa | - | - | 0 W/m² | - |
| 1777776371 | 30° C | 49% | 928 hPa | - | - | 0 W/m² | - |
| 1777775746 | 29.44° C | 52% | 928 hPa | - | - | 0 W/m² | - |
| 1777775122 | 29.44° C | 53% | 928 hPa | - | - | 0 W/m² | - |
* Rain since midnight (hover to see other rain measurements)
** Current wind speed in m/s (hover to see current wind gust speed)